CAPE
0 0 0 0 0 0 0 0 0 0 0 0 0 0 0 0 0 0 0 0 0 0 0 0 35 1082 1357 1526 1609 1765 1986 2175 1865 1690 1928 2131 2194 2132 2078 1988 2011 2173 2312 2138 1792 1301 1338 1322 1287 1347 1345 1297 1168 1034 892 782 725 756 808 725 637 627 696 721 734 747 736 753 746 764 766 769 804 925 985 993 921 819 805 851 820 752 697 658 670 739
0 0 0 0 0 0 0 0 0 0 0 0 0 0 0 0 0 0 0 0 0 0 0 0 397 1111 1340 1518 1534 1691 1882 1992 1682 1524 1729 1895 1775 1693 1822 1975 2098 2226 2125 1900 1500 1246 1238 1233 1291 1347 1274 1154 1059 867 733 637 538 598 630 657 660 614 705 731 742 754 751 758 765 782 781 742 814 912 995 970 859 836 800 759 677 630 649 668 651 668
0 0 0 0 0 0 0 0 0 0 0 0 0 0 0 0 0 0 0 0 0 0 0 64 474 1108 1242 1422 1449 1516 1677 1706 1578 1356 1436 1541 1516 1582 1691 1874 1966 2131 2045 1703 1238 1275 1243 1249 1317 1302 1204 1113 1029 895 664 630 628 640 638 651 658 628 642 709 733 748 766 761 777 832 849 826 843 911 940 906 818 784 795 739 622 585 606 628 623 603
0 0 0 0 0 0 0 0 0 0 0 0 0 0 0 0 0 0 0 0 0 0 0 565 601 1367 1293 1255 1234 1305 1367 1506 1412 1309 1389 1422 1408 1466 1531 1693 1943 2081 1825 1268 1278 1387 1306 1227 1203 1183 1094 1123 1022 703 707 699 707 708 695 692 682 681 672 672 720 760 785 800 826 859 919 866 825 900 859 848 845 771 762 723 607 532 510 526 490 489
0 0 0 0 0 0 0 0 0 0 0 0 0 0 0 0 0 0 0 0 0 0 184 734 1119 1418 1439 1263 1166 1088 1110 1151 1189 1236 1255 1422 1561 1656 1649 1765 1925 1898 1471 1167 1327 1351 1341 1288 1274 1160 1134 1048 839 632 746 768 773 770 780 752 723 726 727 712 729 785 814 826 855 881 850 832 848 812 798 805 741 668 673 626 534 460 438 484 481 468
0 0 0 0 0 0 0 0 0 0 0 0 0 0 0 0 0 0 0 0 0 0 394 338 284 1098 1470 1459 1274 1136 1068 994 1030 1073 1211 1299 1473 1400 1469 1686 1783 1668 1273 1286 1410 1445 1415 1304 1164 1142 1046 956 854 674 770 818 819 825 809 793 763 755 810 787 781 808 878 920 913 919 842 814 768 792 773 699 658 559 556 546 476 412 382 398 445 415
0 0 0 0 0 0 0 0 0 0 0 0 0 0 0 0 0 0 0 0 0 0 0 0 0 365 1162 1116 1205 1206 1269 1105 1062 1010 1067 1160 1237 1151 1302 1451 1497 1328 1158 1241 1406 1389 1284 1217 1152 1040 1008 1011 825 669 784 876 897 864 810 761 786 814 842 888 894 906 938 1034 1023 954 932 813 771 743 695 616 535 478 499 476 432 424 364 342 336 393
0 0 0 0 0 0 0 0 0 0 0 0 0 0 0 0 0 0 0 0 0 0 0 0 0 196 549 739 965 1033 1238 1158 1108 1028 1093 1199 1235 1081 1200 1345 1335 1133 1126 1118 1247 1284 1270 1233 1160 1077 1100 1039 784 687 756 854 914 918 842 749 704 764 726 812 902 829 963 1052 1007 984 963 850 804 679 601 586 533 480 482 496 450 380 352 373 445 447
0 0 0 0 0 0 0 0 0 0 0 0 0 0 0 0 0 0 0 0 0 0 0 0 22 12 18 331 811 1058 1075 1121 1053 1070 1143 1245 1272 1091 1146 1253 1144 1248 1277 1215 1105 1249 1306 1278 1201 1163 1130 959 772 741 818 808 883 901 866 745 721 643 689 908 895 846 958 964 899 956 946 911 827 688 550 534 470 424 439 441 382 388 458 502 496 471
0 0 0 0 0 0 0 0 0 0 0 0 0 0 0 0 0 0 0 0 0 0 0 0 0 0 0 229 626 853 855 1149 1128 1178 1164 1187 1306 1198 1056 1034 1194 1291 1351 1249 1087 1238 1286 1226 1201 1214 1130 950 854 722 771 834 898 923 891 820 775 821 680 593 734 845 824 765 858 926 981 912 790 718 510 458 410 378 378 414 476 523 579 526 482 381
0 0 0 0 0 0 0 0 0 0 0 0 0 0 0 0 0 0 0 0 0 0 0 0 0 0 0 6 421 655 595 1050 1289 1181 1093 1216 1352 1212 1067 1070 1192 1261 1321 1251 1161 1229 1276 1210 1256 1284 1192 1025 884 764 901 996 910 826 850 877 824 858 834 729 786 846 752 767 837 952 911 861 733 658 506 398 374 364 320 354 407 464 517 484 376 325
0 0 0 0 0 0 0 0 0 0 0 0 0 0 0 0 0 0 0 0 0 0 0 0 0 0 0 0 316 395 508 654 1199 1146 1108 1280 1386 1266 1093 1084 1181 1210 1218 1199 1181 1104 1122 1172 1334 1336 1279 1108 960 894 1011 950 768 653 815 899 861 867 839 861 905 910 814 883 914 944 896 841 733 650 595 449 346 323 399 399 379 402 421 346 257 225
0 0 0 0 0 0 0 0 0 0 0 0 0 0 0 0 0 0 0 0 0 0 0 0 0 0 0 0 132 492 403 720 1146 1099 1160 1318 1370 1223 1085 1115 1164 1121 1144 1208 1148 1095 1007 1127 1307 1369 1262 1141 1079 1014 976 884 736 750 812 906 891 811 903 929 877 881 736 870 967 955 881 831 766 668 604 461 434 407 352 372 436 412 307 248 211 31
0 0 0 0 0 0 0 0 0 0 0 0 0 0 0 0 0 0 0 0 0 0 0 0 0 0 0 0 114 521 444 716 1076 1067 1134 1327 1360 1228 1099 1105 1131 1138 1141 1207 1198 1117 1078 1198 1343 1174 1214 1250 1168 1003 904 834 754 850 921 998 1008 856 816 888 882 841 771 897 948 932 882 804 708 614 592 564 540 485 429 399 373 311 305 278 44 0
0 0 0 0 0 0 0 0 0 0 0 0 0 0 0 0 0 0 0 0 0 0 0 0 0 0 0 0 22 423 506 570 891 1067 1188 1272 1250 1211 1108 1103 1119 1139 1144 1133 1156 1124 1109 1005 975 968 1167 1206 1101 971 829 837 851 931 968 940 876 850 721 735 832 834 881 859 837 864 854 796 726 702 689 634 648 627 508 384 329 349 291 47 0 0
0 0 0 0 0 0 0 0 0 0 0 0 0 0 0 0 0 0 0 0 0 0 0 0 0 0 0 2 0 436 418 392 849 1054 1233 1211 1190 1150 1113 1071 1055 1100 1186 1193 1081 1040 1035 1012 1020 1040 970 906 864 856 835 846 920 1032 1082 1020 898 900 799 894 920 864 810 753 785 842 834 835 797 754 773 709 581 441 335 358 356 278 56 0 0 0
0 0 0 0 0 0 0 0 0 0 0 0 0 0 0 0 0 0 0 0 0 0 0 0 0 0 0 50 191 270 345 669 818 1049 1170 1147 1099 1197 1138 1086 1011 1144 1257 1198 1120 1043 999 989 1048 1022 978 932 908 915 907 906 1021 1132 1038 959 914 864 846 902 923 860 741 708 733 776 760 743 691 650 656 552 418 391 419 336 256 56 0 25 164 149
0 0 0 0 0 0 0 0 0 0 0 0 0 0 0 0 0 0 0 0 0 0 0 0 0 0 0 6 360 422 415 701 853 1003 1096 1138 1136 1256 1147 1063 1049 1162 1164 1191 1162 1079 972 957 1026 1016 1024 999 972 958 949 987 1063 1008 743 740 734 706 724 676 687 651 606 621 658 673 640 632 566 470 426 413 432 375 293 219 152 0 0 170 183 154
0 0 0 0 0 0 0 0 0 0 0 0 0 0 0 0 0 0 0 0 0 0 0 0 0 0 0 247 235 442 529 668 832 953 1075 1149 1216 1228 1148 1064 1007 1088 1128 1196 1090 950 958 928 941 1021 993 953 918 923 956 1027 937 713 554 517 520 561 644 541 517 549 564 586 592 558 534 524 490 411 347 315 282 257 210 219 200 159 116 176 151 7
0 0 0 0 0 0 0 0 0 0 0 0 0 0 0 0 0 0 0 0 0 0 0 0 0 48 0 364 250 455 541 670 822 980 1109 1070 1187 1219 1173 1123 1017 944 1018 1093 1007 906 952 1001 984 926 868 856 874 959 974 813 612 518 471 456 477 568 570 458 453 505 524 504 483 477 434 389 327 272 253 215 198 188 134 26 22 16 140 143 7 0
0 0 0 0 0 0 0 0 0 0 0 0 0 0 0 0 0 0 0 0 0 0 0 0 0 0 0 113 320 441 518 632 775 972 1005 1006 1150 1231 1191 1146 1077 980 942 955 1018 898 907 1051 871 780 786 834 934 971 778 563 554 558 565 579 614 577 491 531 464 450 475 436 420 395 375 333 250 189 180 185 156 12 2 1 0 114 69 0 0 0
0 0 0 0 0 0 0 0 0 0 0 0 0 0 0 0 0 0 0 0 0 0 0 0 0 0 0 103 375 484 518 608 753 871 913 960 1158 1254 1214 1118 1062 1027 922 943 984 899 943 945 769 773 766 872 974 938 671 595 597 564 556 585 592 533 485 490 458 392 345 322 279 235 192 166 142 126 8 2 1 3 0 0 0 0 0 0 0 0
0 0 0 0 0 0 0 0 0 0 0 0 0 0 0 0 0 0 0 0 0 0 0 0 0 0 59 150 402 560 524 621 755 833 864 943 1166 1269 1213 1092 1067 1031 907 764 871 988 976 858 812 837 800 859 943 844 648 553 542 520 578 580 524 467 492 452 371 242 162 199 128 84 65 0 63 101 109 108 107 81 56 15 0 0 0 0 0 0
4 1 0 0 0 0 0 0 0 0 0 0 0 0 0 0 0 0 0 0 0 0 0 0 0 62 106 168 393 548 690 759 782 809 800 881 1173 1266 1210 1102 1067 1041 969 732 670 679 830 866 792 734 829 799 759 768 664 556 508 528 541 504 524 545 501 387 248 0 0 1 36 97 112 133 137 157 157 149 138 102 55 53 45 0 0 0 0 0
0 1 0 0 0 0 0 0 0 0 0 0 0 0 0 0 0 0 0 0 0 0 0 0 0 42 168 195 296 576 680 693 746 785 790 900 1183 1237 1184 1102 1026 975 992 836 642 618 744 869 830 772 757 771 708 700 631 524 454 492 587 625 627 588 469 294 0 0 0 89 146 157 167 190 188 191 176 154 112 90 49 52 49 49 20 0 0 0
13 8 5 0 0 0 0 0 0 0 0 0 0 0 0 0 0 0 0 0 0 0 0 0 0 44 309 212 422 564 653 728 747 802 844 918 1164 1195 1147 1121 1004 975 997 901 683 664 756 843 824 792 804 743 684 608 553 506 458 554 668 690 627 572 366 0 0 0 177 193 194 203 209 218 221 212 202 154 103 85 51 50 48 53 0 0 0 0
15 26 27 25 0 0 0 0 0 0 0 0 0 0 0 0 0 0 0 0 0 0 0 0 32 93 420 397 422 610 685 801 802 854 900 962 1098 1170 1176 1140 1042 1004 1000 922 711 683 758 816 827 830 765 682 639 572 550 518 476 522 678 668 575 455 211 0 0 32 236 232 211 196 208 217 221 225 224 158 107 60 48 43 42 0 0 0 0 0
19 13 13 2 0 0 0 0 0 0 0 0 0 0 0 0 0 0 0 0 0 0 0 0 22 216 327 328 490 618 722 816 850 847 871 992 1092 1166 1213 1180 1060 1008 980 895 696 662 734 800 791 778 764 623 606 581 517 514 522 525 697 649 520 356 0 0 0 91 226 216 212 201 193 176 200 214 174 125 51 0 0 0 0 0 0 0 0 0
10 9 6 0 0 0 0 0 0 0 0 0 0 0 0 0 0 0 0 0 0 0 0 8 181 196 312 358 452 618 741 855 884 859 929 1053 1138 1158 1211 1236 1138 1040 970 897 783 712 735 748 723 815 772 627 621 660 606 470 398 405 622 624 493 343 57 0 0 282 262 254 222 138 41 0 0 16 69 60 0 0 0 0 0 0 0 0 0 0
2 4 1 6 3 0 0 0 0 0 0 0 0 0 0 0 0 0 0 0 0 0 0 26 212 206 345 434 452 629 724 828 899 922 933 1096 1195 1254 1303 1266 1176 1058 956 899 848 776 757 761 772 777 699 620 630 662 625 493 341 356 546 599 546 407 269 112 353 362 311 262 104 0 0 0 0 20 118 0 0 0 0 0 0 0 0 0 0 0
6 9 0 0 0 0 0 0 0 0 0 0 0 0 0 0 0 0 0 0 0 0 0 70 184 309 420 568 696 817 852 884 876 938 1024 1172 1276 1337 1355 1310 1210 1093 970 905 868 826 791 766 745 656 598 571 599 646 626 511 425 384 483 568 528 396 315 373 438 366 290 268 0 0 0 0 0 53 8 140 0 0 0 0 0 0 0 0 0 0
9 3 0 0 2 2 0 0 0 0 0 0 0 0 0 0 0 0 0 0 0 59 100 198 283 318 485 772 900 1006 1025 984 986 1000 1079 1184 1306 1357 1358 1314 1223 1098 974 906 882 846 803 821 791 671 628 614 600 632 603 524 394 365 484 518 481 374 378 438 422 348 185 40 47 40 20 12 117 210 0 86 72 0 0 0 0 0 0 0 0 0
17 2 0 0 0 12 0 0 0 0 0 0 0 0 0 0 0 0 0 0 0 98 107 108 157 191 570 1012 1036 1144 1164 1142 1095 1080 1178 1226 1298 1343 1328 1266 1186 1096 993 890 865 839 808 800 794 721 652 641 566 535 556 505 399 308 375 443 421 396 398 406 361 183 54 88 85 112 85 85 183 231 179 62 152 0 0 0 0 0 0 0 0 0
10 2 0 0 0 0 0 0 0 0 0 36 208 98 0 0 0 0 0 0 12 0 22 16 12 337 839 1154 1169 1227 1275 1254 1200 1233 1230 1249 1264 1248 1238 1185 1145 1096 1013 935 863 809 736 685 675 684 650 624 603 547 431 476 561 479 282 224 373 349 174 114 21 8 33 109 128 130 132 187 166 170 214 187 0 0 0 0 0 0 0 0 0 0
6 0 0 0 0 0 0 0 0 0 0 146 21 0 0 0 0 0 0 0 0 0 0 28 288 524 1131 1282 1240 1254 1315 1332 1286 1246 1248 1288 1244 1202 1194 1171 1176 1122 1044 956 900 835 742 644 597 632 658 670 645 548 418 333 298 396 392 326 256 61 92 101 37 80 114 157 218 171 58 139 258 260 246 109 22 0 0 0 0 0 0 0 0 0
1 0 0 0 0 0 0 0 0 0 71 0 0 0 0 37 0 0 0 0 0 0 36 93 302 638 1032 1285 1371 1393 1428 1419 1362 1357 1345 1314 1247 1173 1154 1147 1100 1049 1011 939 886 840 778 722 689 704 748 748 709 593 454 338 241 227 297 312 82 107 145 170 146 163 131 143 201 231 240 79 0 9 2 0 0 0 0 0 0 0 0 0 0 0
0 0 0 0 0 2 0 0 0 18 88 47 0 10 0 4 0 0 0 0 0 0 12 172 301 676 1013 1236 1380 1487 1470 1450 1394 1449 1429 1426 1358 1273 1199 1125 1038 1005 954 882 819 803 776 736 751 776 799 817 807 690 587 407 285 225 247 293 302 116 212 244 180 216 237 248 135 120 170 92 12 0 0 0 0 0 0 0 0 0 0 0 0 0
0 2 0 0 0 5 0 0 16 5 104 58 0 0 0 0 0 0 0 0 0 26 0 150 345 748 950 1114 1383 1557 1588 1565 1440 1447 1445 1486 1438 1396 1260 1117 1037 1014 912 856 803 787 790 788 761 742 775 826 832 752 645 535 380 307 310 338 329 306 203 290 272 286 273 226 110 20 182 159 55 0 0 0 0 0 0 0 0 0 0 0 0 0
1 0 0 0 0 0 0 0 18 4 0 1 11 0 0 0 0 0 0 0 0 180 0 71 451 844 972 1088 1326 1481 1625 1487 1383 1366 1441 1481 1452 1404 1292 1144 1037 974 927 890 861 808 803 785 779 757 716 747 796 803 720 562 443 367 375 338 300 389 362 359 293 257 189 150 110 25 16 50 10 0 0 0 0 0 0 0 0 0 0 0 0 0
0 0 0 0 0 0 0 0 8 0 108 29 49 8 0 0 0 0 0 0 76 196 133 167 552 905 1080 1141 1278 1352 1431 1274 1234 1357 1414 1458 1475 1391 1296 1208 1114 1046 989 947 925 878 818 799 810 774 733 721 706 693 700 602 495 390 286 230 252 400 368 280 301 184 191 151 99 26 12 16 9 0 0 0 0 0 0 0 0 0 0 0 0 0
4 2 1 2 1 0 0 0 0 0 0 80 22 23 4 4 0 0 0 38 151 297 186 303 547 891 1101 1182 1202 1364 1344 1128 1023 1125 1162 1429 1412 1472 1396 1318 1227 1111 1082 1022 990 936 896 828 772 747 714 727 679 662 691 582 534 392 218 178 305 470 436 163 159 140 136 160 140 58 0 2 0 0 0 0 0 0 0 0 0 0 0 0 0 0
5 0 0 0 0 3 0 0 0 0 283 142 3 0 0 1 4 0 170 168 273 218 274 220 629 770 987 1077 1169 1189 1282 1079 892 761 1092 1287 1340 1457 1451 1376 1294 1207 1132 1085 1025 941 875 804 751 707 686 668 651 670 600 473 437 276 237 288 420 497 322 69 77 155 125 58 52 73 11 0 0 0 0 0 0 0 0 0 0 0 0 0 0 0
0 0 1 0 0 0 0 0 0 20 152 338 54 84 88 6 6 136 344 339 279 376 208 111 423 750 868 1080 1145 1128 1178 1134 1022 886 1000 1211 1300 1359 1399 1368 1278 1228 1178 1110 1038 950 837 749 695 645 644 619 603 567 446 401 315 267 243 312 399 271 236 231 174 110 80 88 78 24 11 14 17 0 0 0 0 0 0 0 0 0 0 0 0 0
0 0 0 0 0 0 0 0 55 84 385 418 168 206 441 306 276 362 286 623 410 365 167 105 216 594 873 1019 1132 1173 1154 1210 1112 823 856 1070 1171 1227 1291 1296 1270 1241 1243 1153 1014 878 797 718 631 586 538 584 578 507 486 451 282 212 180 230 266 210 283 286 117 75 34 95 127 52 72 60 23 0 0 0 0 0 0 0 0 0 0 0 0 0
0 0 0 0 0 0 0 246 558 516 609 544 518 479 356 363 465 566 673 436 622 362 309 117 70 381 726 924 1121 1222 1196 1189 1185 839 780 905 1026 1117 1222 1305 1293 1249 1253 1179 984 794 665 613 583 504 490 489 541 511 459 364 285 246 236 211 217 238 193 223 191 97 64 86 75 77 90 81 51 4 0 0 0 0 0 0 0 0 0 0 0 0
10 0 0 59 61 484 473 493 592 565 552 498 446 390 398 428 510 696 676 753 575 700 584 502 240 167 528 809 924 1077 1163 1150 1061 880 679 806 897 1039 1206 1276 1278 1288 1194 1098 932 726 592 477 436 447 456 466 477 482 401 322 227 189 173 228 225 207 129 174 152 53 73 52 66 82 87 85 56 9 0 0 0 0 0 0 0 0 0 0 0 0
0 0 0 477 406 322 588 590 682 624 559 580 536 444 365 400 484 634 737 714 726 688 728 628 501 281 430 646 874 985 1010 1028 914 775 602 749 866 1016 1231 1296 1273 1228 1106 995 856 649 484 382 325 346 404 448 415 378 351 263 180 119 51 215 195 154 252 67 75 87 64 75 63 55 42 18 42 8 0 0 0 0 0 0 0 0 0 0 0 0
63 0 325 259 148 141 532 656 630 617 595 530 543 576 498 444 433 517 601 660 661 714 762 726 720 524 478 637 767 869 905 814 791 728 629 784 876 1038 1202 1241 1189 1059 969 852 738 580 438 329 311 289 308 351 365 326 292 246 182 70 20 113 178 232 150 58 72 95 76 68 51 14 19 60 36 4 0 0 0 0 0 0 0 0 0 0 0 0
12 16 276 61 64 146 506 647 583 524 519 512 453 423 498 524 445 474 585 659 719 698 709 760 676 782 783 834 822 817 796 653 544 555 679 781 897 1015 1090 1088 1042 938 840 715 633 493 395 324 280 277 283 278 261 261 251 240 204 139 90 136 208 58 180 78 129 47 49 46 33 37 60 47 7 0 0 0 0 0 0 0 0 0 0 0 0 0
0 207 0 58 146 191 371 442 607 483 379 321 267 238 263 406 434 435 488 617 636 660 659 707 781 592 574 642 684 670 520 481 562 598 691 758 816 894 917 926 876 820 721 607 499 410 346 304 277 252 263 269 240 199 188 206 192 145 106 104 68 157 99 153 104 62 26 27 42 46 30 10 0 0 0 0 0 0 0 0 0 0 0 0 0 0
10 29 0 64 0 251 244 237 305 178 212 250 293 266 236 224 220 321 436 498 606 621 660 654 616 738 632 592 554 507 493 531 608 664 685 703 717 735 741 771 740 718 660 563 471 393 337 304 259 237 210 201 183 161 134 143 142 149 132 129 124 106 150 151 126 40 22 28 28 35 29 2 0 0 0 0 0 0 0 0 0 0 0 0 0 0
Wind_Speed
nan nan nan nan nan nan nan nan nan nan nan nan nan nan nan nan nan nan nan nan nan nan nan nan nan 36 32 31 30 27 23 21 24 27 28 29 30 30 28 27 25 23 22 23 23 23 23 22 21 22 22 23 23 23 24 25 24 23 23 22 21 20 20 21 21 21 23 24 24 23 24 25 22 21 21 21 19 21 20 21 22 22 21 21 22 23
nan nan nan nan nan nan nan nan nan nan nan nan nan nan nan nan nan nan nan nan nan nan nan nan 40 35 31 30 32 31 25 20 23 26 26 27 28 29 28 28 26 25 24 24 24 23 22 21 22 22 23 24 25 22 24 25 25 25 24 22 21 20 20 20 21 22 22 23 23 24 24 25 22 21 21 20 20 21 22 22 23 22 22 22 22 22
nan nan nan nan nan nan nan nan nan nan nan nan nan nan nan nan nan nan nan nan nan nan nan nan 40 34 33 34 34 28 23 23 24 25 26 28 28 28 27 28 28 27 25 23 22 22 21 22 23 23 23 23 23 23 23 24 25 25 24 22 21 21 22 21 21 22 23 23 25 25 25 24 23 22 20 21 21 23 25 24 23 22 21 21 20 19
nan nan nan nan nan nan nan nan nan nan nan nan nan nan nan nan nan nan nan nan nan nan nan 43 43 41 44 43 38 34 29 29 28 29 29 27 27 27 26 27 28 27 27 24 22 22 20 22 23 23 24 23 22 21 22 23 24 23 22 21 20 21 21 22 22 22 24 27 28 27 26 24 22 20 21 23 22 23 24 23 21 21 21 21 21 20
nan nan nan nan nan nan nan nan nan nan nan nan nan nan nan nan nan nan nan nan nan nan 50 51 49 44 41 41 39 37 38 37 33 32 30 27 27 28 28 25 24 25 25 23 23 21 20 21 23 24 23 23 22 21 22 22 22 21 21 20 20 19 20 21 22 24 26 28 27 25 24 22 23 22 21 22 21 20 21 21 21 20 21 22 22 21
nan nan nan nan nan nan nan nan nan nan nan nan nan nan nan nan nan nan nan nan nan nan 46 47 50 42 42 37 41 40 39 37 34 31 27 27 26 26 23 22 22 21 20 22 23 22 20 21 23 23 24 24 22 21 21 21 21 21 20 20 20 20 21 23 24 25 26 26 25 22 20 19 20 21 19 19 19 19 20 19 16 20 21 22 23 22
nan nan nan nan nan nan nan nan nan nan nan nan nan nan nan nan nan nan nan nan nan nan nan nan nan 44 46 40 41 41 39 37 34 28 25 24 23 23 20 20 21 21 21 21 21 21 20 22 23 23 23 23 22 21 22 22 21 21 20 19 19 20 22 24 24 23 23 24 21 21 20 20 21 20 17 17 18 19 18 17 18 18 19 21 22 22
nan nan nan nan nan nan nan nan nan nan nan nan nan nan nan nan nan nan nan nan nan nan nan nan nan 47 43 39 41 37 35 33 32 27 24 22 22 22 20 19 19 20 19 21 22 20 19 20 22 24 23 23 22 23 23 21 20 21 21 20 19 21 22 23 21 21 22 19 18 20 20 19 19 18 16 16 18 18 17 18 19 17 18 19 19 20
nan nan nan nan nan nan nan nan nan nan nan nan nan nan nan nan nan nan nan nan nan nan nan nan nan nan nan 44 42 41 36 35 29 25 20 21 24 24 21 18 17 18 19 20 19 18 17 18 19 20 22 22 24 23 22 20 18 19 20 21 22 24 25 23 21 18 19 19 17 17 17 18 17 17 15 15 16 16 16 19 18 18 17 17 18 20
nan nan nan nan nan nan nan nan nan nan nan nan nan nan nan nan nan nan nan nan nan nan nan nan nan nan nan 48 44 46 44 35 25 16 16 20 22 22 19 17 16 17 18 17 16 17 17 18 18 19 21 22 21 22 22 19 18 18 19 21 25 25 23 21 21 19 18 17 16 16 15 18 15 13 14 15 16 16 16 18 18 17 16 16 18 20
nan nan nan nan nan nan nan nan nan nan nan nan nan nan nan nan nan nan nan nan nan nan nan nan nan nan nan nan 43 46 37 23 14 15 21 19 16 16 16 16 15 15 15 15 15 16 18 19 20 21 21 20 21 22 21 19 18 18 20 22 23 21 21 20 18 20 19 14 13 14 15 15 13 10 12 14 16 16 17 17 15 15 15 16 19 20
nan nan nan nan nan nan nan nan nan nan nan nan nan nan nan nan nan nan nan nan nan nan nan nan nan nan nan nan 44 37 25 13 13 11 14 15 15 14 12 13 12 13 14 15 17 19 20 22 21 20 20 20 21 21 21 19 19 19 20 21 21 20 18 17 18 19 18 14 13 14 14 12 11 10 12 15 16 16 16 14 14 14 16 17 19 20
nan nan nan nan nan nan nan nan nan nan nan nan nan nan nan nan nan nan nan nan nan nan nan nan nan nan nan nan 41 26 17 16 11 11 14 17 16 13 10 11 13 14 15 15 17 18 20 20 20 20 19 19 20 20 21 21 20 20 22 22 21 20 17 17 18 17 17 15 16 14 14 14 14 15 16 17 17 15 14 13 13 14 16 17 20 nan
nan nan nan nan nan nan nan nan nan nan nan nan nan nan nan nan nan nan nan nan nan nan nan nan nan nan nan nan 36 23 9 3 5 8 12 15 18 17 14 14 16 17 14 13 15 16 19 19 19 20 19 19 20 21 22 21 22 22 23 22 22 20 18 18 18 17 18 18 18 17 16 16 17 17 16 15 15 13 13 12 14 14 16 18 nan nan
nan nan nan nan nan nan nan nan nan nan nan nan nan nan nan nan nan nan nan nan nan nan nan nan nan nan nan nan nan 16 5 4 12 23 22 18 19 20 20 17 17 18 14 12 13 16 20 20 19 19 18 19 20 21 22 22 23 23 24 24 24 21 20 20 20 19 20 19 19 18 17 17 17 16 14 13 13 14 14 14 15 16 17 nan nan nan
nan nan nan nan nan nan nan nan nan nan nan nan nan nan nan nan nan nan nan nan nan nan nan nan nan nan nan nan nan 16 17 27 29 24 25 23 23 24 22 18 17 18 17 15 14 16 20 20 18 18 18 18 19 20 21 22 22 23 24 25 23 21 21 21 21 21 20 21 20 19 18 16 16 14 13 13 13 14 15 16 17 18 nan nan nan nan
nan nan nan nan nan nan nan nan nan nan nan nan nan nan nan nan nan nan nan nan nan nan nan nan nan nan nan nan 41 29 29 30 28 26 23 24 25 24 21 18 18 19 19 17 15 15 19 18 16 17 17 17 17 18 20 20 19 21 23 22 20 20 20 20 20 20 20 20 20 18 16 15 14 13 13 14 15 16 16 17 18 nan nan nan 24 25
nan nan nan nan nan nan nan nan nan nan nan nan nan nan nan nan nan nan nan nan nan nan nan nan nan nan nan nan 40 33 29 28 21 19 22 23 24 22 19 17 15 15 17 17 16 16 17 18 17 16 16 16 16 18 19 19 16 15 17 16 17 17 20 20 20 20 19 19 18 16 15 14 13 13 14 15 16 17 18 19 21 nan nan 24 24 24
nan nan nan nan nan nan nan nan nan nan nan nan nan nan nan nan nan nan nan nan nan nan nan nan nan nan nan 39 38 32 27 23 20 22 23 19 20 17 16 15 13 13 15 14 14 15 16 18 16 15 15 15 17 18 18 17 16 16 16 15 17 18 18 19 19 19 19 18 16 14 14 13 13 14 15 15 17 17 19 22 23 25 25 24 23 nan
nan nan nan nan nan nan nan nan nan nan nan nan nan nan nan nan nan nan nan nan nan nan nan nan nan nan nan 32 25 23 21 19 21 22 15 17 17 13 11 11 10 10 11 12 12 14 14 16 16 15 15 16 17 17 17 17 18 19 18 18 18 19 18 19 20 19 19 17 16 15 15 14 14 15 16 16 17 18 21 nan nan nan 25 23 nan nan
nan nan nan nan nan nan nan nan nan nan nan nan nan nan nan nan nan nan nan nan nan nan nan nan nan nan nan 28 20 19 18 18 20 16 15 14 12 9 8 9 9 10 11 12 13 15 14 15 16 15 15 17 18 18 18 18 19 19 19 19 18 19 18 20 19 20 19 17 16 16 16 15 15 16 16 17 18 nan nan nan nan 24 nan nan nan nan
nan nan nan nan nan nan nan nan nan nan nan nan nan nan nan nan nan nan nan nan nan nan nan nan nan nan nan 30 15 13 15 18 16 17 14 13 12 8 8 10 10 11 10 10 13 14 15 16 16 15 17 18 19 18 20 19 19 19 19 17 17 18 18 19 19 19 19 18 18 18 18 18 17 17 nan nan nan nan nan nan nan nan nan nan nan nan
nan nan nan nan nan nan nan nan nan nan nan nan nan nan nan nan nan nan nan nan nan nan nan nan nan nan nan 28 19 16 14 14 16 14 11 11 10 8 8 10 10 11 10 8 11 14 15 16 16 15 17 18 19 20 21 20 18 19 19 18 17 18 17 18 19 19 19 20 20 nan nan nan nan 18 20 21 21 nan nan nan nan nan nan nan nan nan
nan nan nan nan nan nan nan nan nan nan nan nan nan nan nan nan nan nan nan nan nan nan nan nan nan nan 26 29 30 31 30 27 22 15 14 11 8 9 9 8 8 11 10 10 10 12 13 15 16 17 17 18 19 20 20 20 19 19 19 18 18 18 18 19 20 nan nan nan nan nan 21 20 20 21 22 23 22 24 nan nan nan nan nan nan nan nan
nan nan nan nan nan nan nan nan nan nan nan nan nan nan nan nan nan nan nan nan nan nan nan nan nan nan 28 30 30 32 31 27 24 23 19 16 12 11 8 9 11 13 13 13 12 11 12 13 14 14 15 17 19 21 21 20 19 20 20 19 20 19 19 19 nan nan nan nan 22 22 22 21 22 23 24 24 23 nan nan nan nan nan nan nan nan nan
nan nan nan nan nan nan nan nan nan nan nan nan nan nan nan nan nan nan nan nan nan nan nan nan nan nan 28 31 31 32 32 32 30 28 24 20 18 16 14 14 16 15 14 15 14 12 13 14 14 15 15 16 19 21 21 21 20 20 21 21 21 21 20 nan nan nan 24 24 25 24 24 23 23 25 26 25 25 nan nan nan nan nan nan nan nan nan
nan nan nan nan nan nan nan nan nan nan nan nan nan nan nan nan nan nan nan nan nan nan nan nan nan nan 29 30 29 29 29 26 26 25 23 21 21 22 22 19 17 16 17 18 18 16 15 16 17 17 17 17 19 22 22 22 21 22 23 23 22 22 23 nan nan nan 27 27 27 26 25 24 24 26 27 27 27 nan nan nan nan nan nan nan nan nan
nan nan nan nan nan nan nan nan nan nan nan nan nan nan nan nan nan nan nan nan nan nan nan nan nan 32 22 25 22 23 27 28 26 25 25 26 25 25 26 25 23 21 21 22 23 23 20 19 19 19 18 19 20 22 23 22 22 23 23 23 23 24 nan nan nan nan 28 29 29 28 26 25 26 29 29 29 nan nan nan nan nan nan nan nan nan nan
nan nan nan nan nan nan nan nan nan nan nan nan nan nan nan nan nan nan nan nan nan nan nan nan 25 27 24 21 19 19 23 23 23 24 25 29 33 34 32 31 29 27 24 22 22 24 24 22 19 18 19 19 21 23 24 23 23 23 24 24 24 25 nan nan nan 27 29 30 30 28 nan nan nan nan nan nan nan nan nan nan nan nan nan nan nan nan
nan nan nan nan nan nan nan nan nan nan nan nan nan nan nan nan nan nan nan nan nan nan nan nan 21 17 21 19 20 23 29 31 34 37 38 36 35 35 34 32 30 28 25 24 23 22 22 21 20 19 20 20 21 22 24 24 23 24 26 25 26 26 26 27 28 29 29 30 30 nan nan nan nan nan 32 nan nan nan nan nan nan nan nan nan nan nan
nan nan nan nan nan nan nan nan nan nan nan nan nan nan nan nan nan nan nan nan nan nan nan nan 27 20 22 21 24 32 39 41 38 33 32 34 36 34 31 27 26 24 22 22 23 23 22 21 22 22 20 20 20 22 23 24 25 26 27 27 27 27 27 29 30 30 30 31 nan nan nan nan nan nan nan 33 nan nan nan nan nan nan nan nan nan nan
nan nan nan nan nan nan nan nan nan nan nan nan nan nan nan nan nan nan nan nan nan nan nan 43 35 26 24 23 26 27 28 29 28 28 29 28 28 27 24 21 21 20 19 20 21 22 22 21 21 21 20 20 21 22 24 25 26 27 27 28 28 28 28 30 31 31 32 nan nan nan nan nan 33 33 nan nan nan nan nan nan nan nan nan nan nan nan
nan nan nan nan nan nan nan nan nan nan nan nan nan nan nan nan nan nan nan nan nan nan 46 42 28 27 26 23 24 21 21 21 23 21 21 21 19 16 15 15 15 15 16 18 20 20 20 20 19 20 21 22 22 23 24 26 27 27 28 29 29 29 30 31 32 34 nan nan nan 33 nan nan 34 35 36 nan 36 nan nan nan nan nan nan nan nan nan
nan nan nan nan nan nan nan nan nan nan nan nan 47 nan nan nan nan nan nan nan nan nan nan nan nan 36 33 26 24 18 17 13 11 10 13 15 12 9 8 9 10 11 12 15 16 18 20 21 21 20 21 22 23 25 27 27 28 29 29 30 30 30 30 32 nan nan nan 32 32 35 37 37 36 36 36 36 nan nan nan nan nan nan nan nan nan nan
nan nan nan nan nan nan nan nan nan nan nan 44 nan nan nan nan nan nan nan nan nan nan nan nan 40 34 27 21 18 13 7 9 13 14 12 11 13 15 15 14 13 12 11 12 14 17 19 21 22 22 21 21 23 25 28 29 31 33 31 30 30 nan nan 34 nan nan 36 34 33 36 nan 39 37 36 35 35 nan nan nan nan nan nan nan nan nan nan
nan nan nan nan nan nan nan nan nan nan nan nan nan nan nan nan nan nan nan nan nan nan nan nan 33 30 29 32 34 36 34 32 30 27 22 19 19 20 20 19 18 18 16 14 15 18 21 22 22 22 22 23 24 25 27 29 32 34 32 30 nan 31 33 35 36 36 37 36 35 37 39 nan nan nan nan nan nan nan nan nan nan nan nan nan nan nan
nan nan nan nan nan nan nan nan nan nan nan nan nan nan nan nan nan nan nan nan nan nan nan 37 36 36 38 39 38 38 38 38 36 32 30 27 24 21 18 18 20 18 16 15 18 19 22 24 24 23 24 24 24 26 27 31 33 35 35 33 31 32 33 35 36 36 37 38 37 38 37 nan nan nan nan nan nan nan nan nan nan nan nan nan nan nan
nan nan nan nan nan nan nan nan nan nan 46 nan nan nan nan nan nan nan nan nan nan nan nan 43 40 40 42 43 43 41 44 43 36 27 26 26 24 23 21 19 16 16 17 19 20 22 23 24 25 26 27 27 26 26 29 31 33 35 34 33 32 33 34 35 36 37 38 38 38 nan 35 35 nan nan nan nan nan nan nan nan nan nan nan nan nan nan
nan nan nan nan nan nan nan nan nan nan nan nan nan nan nan nan nan nan nan nan nan 48 nan nan 47 44 45 47 47 46 44 39 28 24 24 25 24 24 25 22 20 20 21 23 25 25 26 27 29 30 30 31 29 28 30 32 33 33 32 32 32 33 34 34 36 38 39 38 39 nan nan nan nan nan nan nan nan nan nan nan nan nan nan nan nan nan
nan nan nan nan nan nan nan nan nan nan 43 nan nan nan nan nan nan nan nan nan nan 43 43 43 43 42 43 43 44 44 40 32 26 20 25 23 24 25 25 26 26 28 30 32 32 33 35 36 36 34 32 30 29 32 32 33 32 32 32 32 33 33 33 35 37 38 39 39 nan nan nan nan nan nan nan nan nan nan nan nan nan nan nan nan nan nan
nan nan nan nan nan nan nan nan nan nan nan nan nan nan nan nan nan nan nan nan 41 40 40 38 38 38 40 40 37 36 28 28 27 30 34 32 33 30 30 32 33 36 38 39 39 41 39 37 36 34 33 31 32 32 31 32 33 32 32 33 33 32 34 38 40 40 39 39 40 nan nan nan nan nan nan nan nan nan nan nan nan nan nan nan nan nan
nan nan nan nan nan nan nan nan nan nan 31 34 nan nan nan nan nan nan 41 44 44 43 43 39 37 37 36 33 31 28 28 37 40 40 39 36 31 33 37 39 40 39 39 39 42 41 39 37 35 34 33 32 32 31 30 31 31 32 33 33 31 34 39 nan nan 41 41 nan nan nan nan nan nan nan nan nan nan nan nan nan nan nan nan nan nan nan
nan nan nan nan nan nan nan nan nan nan 27 29 nan nan nan nan nan 33 40 44 46 45 44 42 38 36 36 31 30 37 41 40 41 40 38 40 42 40 39 39 39 39 40 40 39 38 40 37 35 33 32 32 31 31 31 31 31 32 33 32 34 38 39 40 41 41 nan nan nan nan nan nan nan nan nan nan nan nan nan nan nan nan nan nan nan nan
nan nan nan nan nan nan nan nan nan nan 21 24 26 26 26 25 26 25 30 37 43 46 45 45 42 39 36 35 34 37 41 44 41 43 44 43 42 42 40 39 39 40 40 39 40 40 39 37 36 34 31 31 31 31 31 31 31 32 32 33 38 39 40 40 40 nan nan nan 41 nan nan nan nan nan nan nan nan nan nan nan nan nan nan nan nan nan
nan nan nan nan nan nan nan 22 21 20 20 22 24 25 25 25 25 22 25 28 33 39 42 44 nan 41 38 37 39 43 43 40 42 44 47 44 44 42 40 38 38 37 37 37 36 36 35 35 34 33 31 30 30 31 32 31 32 33 33 36 40 40 39 39 40 nan nan nan nan nan nan nan nan nan nan nan nan nan nan nan nan nan nan nan nan nan
nan nan nan nan nan 28 27 26 26 26 26 28 27 27 29 30 30 28 28 29 28 30 30 34 36 38 38 40 40 38 37 38 41 39 40 40 38 37 37 36 33 32 33 34 34 33 33 33 32 32 30 30 30 31 32 31 33 34 35 39 39 40 41 42 42 nan nan nan nan nan nan nan nan nan nan nan nan nan nan nan nan nan nan nan nan nan
nan nan nan 33 31 35 31 30 30 27 27 28 29 30 29 31 31 29 30 31 30 32 32 32 33 36 36 36 34 35 35 34 34 35 36 35 34 32 32 31 31 31 32 32 32 34 33 32 30 29 30 30 31 32 33 33 33 34 nan 39 39 40 41 nan nan nan nan nan nan nan nan nan nan nan nan nan nan nan nan nan nan nan nan nan nan nan
nan nan 34 32 32 32 29 28 26 24 23 23 26 30 33 33 34 34 32 30 32 31 31 30 32 33 33 33 32 33 33 33 32 31 31 30 31 31 30 31 32 33 33 34 34 32 33 31 30 29 29 30 31 32 33 33 34 nan nan 38 39 41 41 nan nan nan nan nan nan nan nan nan nan nan nan nan nan nan nan nan nan nan nan nan nan nan
nan nan 26 nan nan 26 26 25 25 26 26 26 27 29 28 28 31 36 36 36 35 35 34 35 33 30 29 29 29 30 29 27 27 27 28 29 30 30 30 31 32 34 36 36 33 32 32 31 30 29 29 30 31 32 32 33 34 36 nan 38 40 nan 40 nan 39 nan nan nan nan nan nan nan nan nan nan nan nan nan nan nan nan nan nan nan nan nan
nan 22 nan nan 26 23 21 21 25 27 24 24 25 28 30 31 32 36 36 38 36 35 34 36 36 34 32 29 27 27 29 29 30 31 30 28 28 28 28 29 29 31 31 31 32 31 31 29 30 30 30 31 32 32 32 34 35 36 36 38 nan 40 nan 40 40 nan nan nan nan nan nan nan nan nan nan nan nan nan nan nan nan nan nan nan nan nan
nan nan nan nan nan 17 15 16 21 23 23 21 23 25 28 30 31 36 34 33 32 30 29 32 34 33 32 31 29 28 29 30 30 31 31 27 25 24 25 28 28 27 27 28 29 28 29 29 29 30 31 31 32 33 34 35 36 36 37 38 39 40 41 42 42 nan nan nan nan nan nan nan nan nan nan nan nan nan nan nan nan nan nan nan nan nan
Wind_Direction
nan nan nan nan nan nan nan nan nan nan nan nan nan nan nan nan nan nan nan nan nan nan nan nan nan 241 246 252 253 251 248 247 249 255 253 260 265 267 268 275 281 287 293 289 288 287 294 295 296 297 295 294 292 292 291 286 285 286 285 282 276 270 267 270 269 266 271 272 271 267 267 267 265 263 261 260 260 261 263 264 264 262 256 249 245 244
nan nan nan nan nan nan nan nan nan nan nan nan nan nan nan nan nan nan nan nan nan nan nan nan 238 239 247 248 251 250 252 263 265 257 256 261 259 261 270 275 281 282 281 287 287 292 292 300 302 299 298 301 299 298 296 295 295 294 293 288 280 274 271 273 276 274 270 269 274 272 266 266 262 261 263 264 260 260 259 258 259 257 251 247 245 245
nan nan nan nan nan nan nan nan nan nan nan nan nan nan nan nan nan nan nan nan nan nan nan nan 235 233 240 243 246 255 260 253 261 258 266 265 264 263 270 274 279 285 290 288 291 292 298 303 305 303 303 304 304 303 301 297 298 301 298 292 285 280 279 278 275 274 274 269 271 272 265 260 259 256 263 265 261 259 258 254 252 249 246 243 239 238
nan nan nan nan nan nan nan nan nan nan nan nan nan nan nan nan nan nan nan nan nan nan nan 227 233 227 227 231 239 237 240 238 250 246 247 254 266 273 280 281 284 290 299 300 298 300 302 307 306 307 308 308 305 302 300 302 303 302 300 295 288 284 279 278 276 269 268 272 275 270 260 249 253 266 266 261 256 253 252 249 245 240 239 234 230 231
nan nan nan nan nan nan nan nan nan nan nan nan nan nan nan nan nan nan nan nan nan nan 226 230 226 223 230 235 234 235 236 240 245 245 247 249 249 251 256 265 281 296 303 301 297 301 307 311 311 313 310 307 308 306 306 305 305 302 303 297 290 282 277 274 273 273 273 274 274 270 255 252 260 261 263 259 247 245 248 246 237 234 231 229 231 235
nan nan nan nan nan nan nan nan nan nan nan nan nan nan nan nan nan nan nan nan nan nan 214 233 220 223 225 234 231 233 235 241 245 248 253 258 257 262 273 275 281 289 293 303 306 306 306 306 310 313 310 310 308 306 305 303 300 300 296 291 282 271 267 268 271 276 275 275 277 271 263 262 265 269 263 258 256 249 244 240 235 232 225 227 233 236
nan nan nan nan nan nan nan nan nan nan nan nan nan nan nan nan nan nan nan nan nan nan nan nan nan 221 221 227 226 229 237 240 242 247 251 256 259 267 276 283 290 294 295 294 294 292 300 308 305 310 312 310 306 300 295 296 293 291 287 284 274 265 261 262 270 275 267 267 266 265 263 264 267 265 249 243 243 249 243 232 227 222 216 219 230 233
nan nan nan nan nan nan nan nan nan nan nan nan nan nan nan nan nan nan nan nan nan nan nan nan nan 231 227 225 230 231 241 245 244 246 253 260 269 274 278 284 287 291 294 293 292 298 307 310 313 314 309 305 300 292 291 290 286 287 282 278 268 253 252 258 266 267 266 266 269 264 260 261 263 258 253 247 244 240 232 223 219 221 219 221 226 235
nan nan nan nan nan nan nan nan nan nan nan nan nan nan nan nan nan nan nan nan nan nan nan nan nan nan nan 227 233 233 234 247 246 250 261 271 274 275 279 285 285 285 289 292 290 304 300 304 309 307 303 297 292 288 285 284 282 277 273 271 261 256 261 252 246 259 271 267 273 269 264 257 249 250 241 233 229 225 216 219 219 228 227 227 229 235
nan nan nan nan nan nan nan nan nan nan nan nan nan nan nan nan nan nan nan nan nan nan nan nan nan nan nan 223 234 230 226 239 249 265 275 273 278 279 282 285 278 276 275 285 291 294 294 297 299 299 292 291 286 277 276 276 277 276 274 273 264 266 285 280 271 259 249 256 260 263 264 264 249 233 221 211 211 211 215 225 231 231 230 231 235 235
nan nan nan nan nan nan nan nan nan nan nan nan nan nan nan nan nan nan nan nan nan nan nan nan nan nan nan nan 234 238 234 245 259 250 247 259 282 295 289 284 271 275 271 272 277 280 287 289 290 291 290 282 277 275 278 276 276 275 274 273 274 279 278 273 266 272 269 253 253 256 260 258 247 227 219 210 210 221 237 242 238 238 235 233 236 239
nan nan nan nan nan nan nan nan nan nan nan nan nan nan nan nan nan nan nan nan nan nan nan nan nan nan nan nan 228 229 247 264 261 271 277 291 306 321 310 288 273 273 268 268 274 278 284 287 290 287 279 276 276 277 277 272 273 275 276 278 277 273 271 267 270 267 265 257 258 247 243 233 226 226 223 236 239 244 253 253 253 245 241 239 241 244
nan nan nan nan nan nan nan nan nan nan nan nan nan nan nan nan nan nan nan nan nan nan nan nan nan nan nan nan 244 242 227 229 246 268 298 308 310 312 305 297 274 269 267 269 276 282 288 290 287 280 273 271 273 273 272 272 272 274 277 283 279 275 275 270 268 262 248 249 242 229 218 215 222 231 238 241 250 258 261 261 256 251 250 250 249 nan
nan nan nan nan nan nan nan nan nan nan nan nan nan nan nan nan nan nan nan nan nan nan nan nan nan nan nan nan 249 260 249 308 305 263 265 299 303 297 289 283 268 262 264 265 275 288 293 289 284 283 282 274 267 266 270 273 274 274 276 276 275 272 264 262 259 252 246 232 219 211 221 230 239 243 247 254 257 260 259 260 260 258 259 259 nan nan
nan nan nan nan nan nan nan nan nan nan nan nan nan nan nan nan nan nan nan nan nan nan nan nan nan nan nan nan nan 261 283 182 196 217 235 244 254 263 261 265 265 258 259 272 284 288 292 289 285 280 275 269 264 268 271 271 273 275 275 273 270 262 254 252 250 247 240 228 225 231 236 239 241 248 250 253 256 263 265 261 263 259 259 nan nan nan
nan nan nan nan nan nan nan nan nan nan nan nan nan nan nan nan nan nan nan nan nan nan nan nan nan nan nan nan nan 230 232 213 214 222 239 254 262 266 265 272 273 258 259 275 283 282 285 287 282 274 272 269 266 270 268 270 273 274 272 268 261 255 249 246 246 244 243 239 240 245 245 240 245 244 249 251 254 256 259 262 262 262 nan nan nan nan
nan nan nan nan nan nan nan nan nan nan nan nan nan nan nan nan nan nan nan nan nan nan nan nan nan nan nan nan 217 227 229 223 220 223 244 258 271 275 276 277 272 258 258 268 271 270 281 276 273 271 269 266 265 263 267 269 272 278 272 263 251 240 238 241 242 245 245 246 244 238 238 244 249 255 260 262 262 261 260 263 263 nan nan nan 267 269
nan nan nan nan nan nan nan nan nan nan nan nan nan nan nan nan nan nan nan nan nan nan nan nan nan nan nan nan 218 228 234 227 226 231 247 264 272 287 284 278 269 256 250 256 257 260 271 272 266 261 257 259 259 260 262 264 259 261 261 256 250 244 246 242 245 243 241 242 239 237 237 239 247 254 258 259 263 262 265 265 266 nan nan 268 270 272
nan nan nan nan nan nan nan nan nan nan nan nan nan nan nan nan nan nan nan nan nan nan nan nan nan nan nan 231 227 232 239 235 230 234 250 279 300 300 285 265 251 248 244 251 258 259 263 273 269 258 253 251 251 256 259 256 251 248 247 246 253 253 249 250 243 236 229 227 228 229 237 245 247 250 254 257 260 263 268 270 271 270 270 269 270 nan
nan nan nan nan nan nan nan nan nan nan nan nan nan nan nan nan nan nan nan nan nan nan nan nan nan nan nan 233 250 252 254 250 248 251 281 312 321 302 278 258 254 264 260 259 259 264 263 271 267 255 253 253 254 258 257 252 247 252 253 251 248 246 245 245 241 234 231 225 228 232 234 236 242 248 257 260 265 267 270 nan nan nan 269 271 nan nan
nan nan nan nan nan nan nan nan nan nan nan nan nan nan nan nan nan nan nan nan nan nan nan nan nan nan nan 227 249 267 267 263 268 291 308 312 305 287 263 252 245 255 264 254 248 262 263 263 256 250 245 245 244 249 251 249 252 253 252 252 252 255 245 242 237 233 227 226 230 235 239 243 244 250 253 259 264 nan nan nan nan 270 nan nan nan nan
nan nan nan nan nan nan nan nan nan nan nan nan nan nan nan nan nan nan nan nan nan nan nan nan nan nan nan 229 232 253 273 279 295 300 303 300 296 281 259 258 256 247 259 258 243 253 258 258 253 248 247 246 248 250 250 248 252 254 254 250 246 241 240 246 239 235 231 226 229 236 238 239 240 247 nan nan nan nan nan nan nan nan nan nan nan nan
nan nan nan nan nan nan nan nan nan nan nan nan nan nan nan nan nan nan nan nan nan nan nan nan nan nan nan 224 228 221 237 268 275 277 279 284 287 266 263 266 255 246 260 271 254 247 253 256 254 251 257 258 257 253 249 252 254 257 256 253 247 246 239 241 242 235 232 232 233 nan nan nan nan 253 260 265 266 nan nan nan nan nan nan nan nan nan
nan nan nan nan nan nan nan nan nan nan nan nan nan nan nan nan nan nan nan nan nan nan nan nan nan nan 211 214 220 217 213 215 223 243 260 258 245 235 252 266 269 256 252 258 259 248 252 254 253 253 256 258 258 259 258 255 254 256 258 258 255 252 246 242 241 nan nan nan nan nan 242 243 248 254 258 262 265 269 nan nan nan nan nan nan nan nan
nan nan nan nan nan nan nan nan nan nan nan nan nan nan nan nan nan nan nan nan nan nan nan nan nan nan 208 208 222 220 223 229 224 213 224 244 234 226 242 275 288 276 266 271 274 272 270 269 271 268 264 261 258 258 258 259 259 261 260 259 259 254 247 242 nan nan nan nan 243 242 245 247 250 255 257 260 264 nan nan nan nan nan nan nan nan nan
nan nan nan nan nan nan nan nan nan nan nan nan nan nan nan nan nan nan nan nan nan nan nan nan nan nan 202 211 222 223 228 225 221 222 222 230 242 244 250 279 293 281 269 270 269 272 281 279 272 270 267 261 261 261 260 259 259 258 259 259 259 260 254 nan nan nan 243 243 247 246 250 252 255 258 259 260 263 nan nan nan nan nan nan nan nan nan
nan nan nan nan nan nan nan nan nan nan nan nan nan nan nan nan nan nan nan nan nan nan nan nan nan nan 210 219 220 224 232 238 239 240 247 247 244 247 258 272 288 281 268 267 270 269 269 266 270 269 265 262 262 262 260 261 259 259 258 258 256 257 258 nan nan nan 246 247 250 253 257 261 262 263 262 262 265 nan nan nan nan nan nan nan nan nan
nan nan nan nan nan nan nan nan nan nan nan nan nan nan nan nan nan nan nan nan nan nan nan nan nan 232 220 219 218 230 231 236 239 244 252 253 260 264 264 264 274 275 266 258 262 271 277 273 265 264 264 263 262 262 262 263 265 265 265 264 259 260 nan nan nan nan 250 252 254 258 262 263 264 266 266 265 nan nan nan nan nan nan nan nan nan nan
nan nan nan nan nan nan nan nan nan nan nan nan nan nan nan nan nan nan nan nan nan nan nan nan 233 235 224 228 229 239 255 258 262 266 266 265 261 262 265 271 277 277 274 272 272 272 271 269 264 265 265 263 262 265 267 266 264 263 264 264 264 262 nan nan nan 258 256 256 258 260 nan nan nan nan nan nan nan nan nan nan nan nan nan nan nan nan
nan nan nan nan nan nan nan nan nan nan nan nan nan nan nan nan nan nan nan nan nan nan nan nan 237 231 223 225 233 230 230 241 245 247 253 264 273 275 276 277 278 279 277 277 277 276 271 264 259 262 262 261 266 267 268 267 268 267 267 265 264 262 260 263 262 261 259 259 260 nan nan nan nan nan 270 nan nan nan nan nan nan nan nan nan nan nan
nan nan nan nan nan nan nan nan nan nan nan nan nan nan nan nan nan nan nan nan nan nan nan nan 229 210 204 215 220 225 236 245 252 261 266 267 270 274 277 277 275 277 276 270 268 268 261 255 255 258 261 265 269 272 270 269 266 264 265 266 267 264 264 265 265 264 264 264 nan nan nan nan nan nan nan 274 nan nan nan nan nan nan nan nan nan nan
nan nan nan nan nan nan nan nan nan nan nan nan nan nan nan nan nan nan nan nan nan nan nan 225 222 209 208 210 220 226 238 253 258 256 258 261 268 271 276 275 272 272 272 270 268 266 262 260 262 267 270 271 272 271 269 268 268 268 268 266 266 265 265 267 269 269 267 nan nan nan nan nan 273 273 nan nan nan nan nan nan nan nan nan nan nan nan
nan nan nan nan nan nan nan nan nan nan nan nan nan nan nan nan nan nan nan nan nan nan 227 228 220 222 231 233 239 236 242 243 245 256 265 268 276 282 283 281 278 274 272 266 267 272 271 270 270 269 268 268 269 268 266 268 268 268 268 269 268 267 269 270 271 269 nan nan nan 275 nan nan 273 273 274 nan 276 nan nan nan nan nan nan nan nan nan
nan nan nan nan nan nan nan nan nan nan nan nan 193 nan nan nan nan nan nan nan nan nan nan nan nan 231 236 234 250 246 251 257 274 273 279 284 273 263 259 264 270 274 267 262 265 267 264 262 261 266 274 277 277 276 275 275 276 273 272 273 273 276 274 275 nan nan nan 271 273 273 272 271 270 269 270 272 nan nan nan nan nan nan nan nan nan nan
nan nan nan nan nan nan nan nan nan nan nan 191 nan nan nan nan nan nan nan nan nan nan nan nan 230 238 244 241 248 254 255 241 230 244 237 237 267 279 285 277 272 273 281 275 266 261 263 266 266 267 268 267 272 272 270 265 259 264 270 274 275 nan nan 275 nan nan 270 271 271 273 nan 273 269 268 267 269 nan nan nan nan nan nan nan nan nan nan
nan nan nan nan nan nan nan nan nan nan nan nan nan nan nan nan nan nan nan nan nan nan nan nan 225 231 235 225 216 207 208 211 213 212 221 244 268 271 266 267 274 278 285 282 277 267 265 267 271 273 272 266 269 269 271 273 273 275 275 274 nan 273 275 277 275 274 273 274 275 278 279 nan nan nan nan nan nan nan nan nan nan nan nan nan nan nan
nan nan nan nan nan nan nan nan nan nan nan nan nan nan nan nan nan nan nan nan nan nan nan 220 217 224 228 226 228 226 230 231 232 228 230 247 254 258 278 286 284 284 284 272 266 266 265 267 270 272 271 274 278 277 275 271 273 274 275 276 275 276 276 276 276 275 275 277 279 280 280 nan nan nan nan nan nan nan nan nan nan nan nan nan nan nan
nan nan nan nan nan nan nan nan nan nan 202 nan nan nan nan nan nan nan nan nan nan nan nan 227 229 232 236 238 243 246 245 245 244 245 249 253 259 261 258 258 255 251 255 257 254 254 256 258 259 262 272 278 278 277 271 273 276 277 277 278 277 278 277 278 279 279 280 281 282 nan 281 279 nan nan nan nan nan nan nan nan nan nan nan nan nan nan
nan nan nan nan nan nan nan nan nan nan nan nan nan nan nan nan nan nan nan nan nan 222 nan nan 237 238 246 252 253 253 252 253 254 258 264 266 266 265 265 258 249 243 249 259 267 269 268 268 270 269 271 278 279 271 268 270 273 274 276 277 278 277 278 280 280 281 282 283 284 nan nan nan nan nan nan nan nan nan nan nan nan nan nan nan nan nan
nan nan nan nan nan nan nan nan nan nan 205 nan nan nan nan nan nan nan nan nan nan 217 222 235 242 244 241 247 255 257 260 255 252 252 266 273 270 264 265 260 253 252 256 259 262 271 277 275 272 270 274 278 275 268 269 268 269 272 273 274 274 276 278 278 276 274 275 277 nan nan nan nan nan nan nan nan nan nan nan nan nan nan nan nan nan nan
nan nan nan nan nan nan nan nan nan nan nan nan nan nan nan nan nan nan nan nan 214 216 221 228 238 240 245 249 249 252 249 258 252 247 263 261 257 253 249 251 257 263 267 268 270 270 272 275 278 277 275 270 269 268 266 264 266 268 269 270 272 276 273 271 272 274 275 275 275 nan nan nan nan nan nan nan nan nan nan nan nan nan nan nan nan nan
nan nan nan nan nan nan nan nan nan nan 196 200 nan nan nan nan nan nan 214 218 220 217 222 228 235 241 246 253 250 250 252 242 245 256 267 274 281 271 260 258 257 256 260 267 274 275 272 271 270 272 275 273 272 269 266 265 265 265 266 267 271 268 265 nan nan 270 272 nan nan nan nan nan nan nan nan nan nan nan nan nan nan nan nan nan nan nan
nan nan nan nan nan nan nan nan nan nan 200 202 nan nan nan nan nan 215 217 219 225 222 225 226 234 236 245 244 240 235 238 240 249 259 270 272 271 273 274 272 272 272 272 270 269 271 271 269 270 272 273 268 269 266 265 267 266 265 265 268 266 263 265 267 268 270 nan nan nan nan nan nan nan nan nan nan nan nan nan nan nan nan nan nan nan nan
nan nan nan nan nan nan nan nan nan nan 208 208 212 213 207 211 211 214 219 218 222 228 227 230 230 239 244 246 250 241 244 247 248 258 266 271 273 271 271 273 271 268 267 267 270 270 269 268 268 268 267 266 265 263 263 268 267 265 267 267 263 264 265 267 269 nan nan nan 273 nan nan nan nan nan nan nan nan nan nan nan nan nan nan nan nan nan
nan nan nan nan nan nan nan 217 214 216 219 214 226 223 222 216 219 222 221 218 219 222 228 233 nan 241 247 250 252 251 250 251 256 263 269 273 273 276 279 278 276 275 273 271 271 270 271 271 269 266 264 263 265 263 266 267 269 269 269 264 265 267 270 270 270 nan nan nan nan nan nan nan nan nan nan nan nan nan nan nan nan nan nan nan nan nan
nan nan nan nan nan 225 226 231 225 221 221 218 224 227 230 227 225 229 224 220 217 220 226 232 233 237 241 242 249 244 248 250 255 255 253 260 266 264 260 261 264 265 265 264 263 265 264 263 266 266 266 263 265 265 265 266 268 273 268 266 268 269 270 270 271 nan nan nan nan nan nan nan nan nan nan nan nan nan nan nan nan nan nan nan nan nan
nan nan nan 234 232 235 237 231 233 227 222 222 223 226 231 234 232 231 231 227 220 223 230 232 239 241 242 240 237 234 233 239 244 246 249 253 257 261 264 267 266 268 269 269 266 267 265 265 265 265 264 264 263 264 264 265 263 265 nan 270 270 271 273 nan nan nan nan nan nan nan nan nan nan nan nan nan nan nan nan nan nan nan nan nan nan nan
nan nan 233 231 233 234 235 235 232 229 227 219 222 225 226 224 227 229 231 232 233 232 234 235 242 247 246 247 247 244 239 236 240 244 247 251 254 255 257 258 258 254 253 258 262 265 264 266 266 266 264 263 263 264 265 265 265 nan nan 270 270 271 273 nan nan nan nan nan nan nan nan nan nan nan nan nan nan nan nan nan nan nan nan nan nan nan
nan nan 233 nan nan 229 229 230 231 229 230 227 224 227 227 225 225 228 230 235 236 237 234 231 232 241 251 259 256 260 259 253 250 249 253 251 250 249 250 251 251 255 258 261 262 263 266 265 267 267 268 265 263 265 265 266 266 269 nan 272 272 nan 275 nan 276 nan nan nan nan nan nan nan nan nan nan nan nan nan nan nan nan nan nan nan nan nan
nan 223 nan nan 232 233 244 241 243 242 234 231 227 219 216 219 226 229 229 231 232 237 237 238 234 233 235 240 253 257 260 256 249 248 251 252 255 255 254 255 255 259 259 260 264 264 264 266 269 269 267 264 265 265 265 265 266 269 272 272 nan 276 nan 275 275 nan nan nan nan nan nan nan nan nan nan nan nan nan nan nan nan nan nan nan nan nan
nan nan nan nan nan 225 218 228 236 234 234 232 227 215 214 217 226 229 226 228 229 232 234 241 238 234 234 234 235 242 251 254 253 249 250 251 253 253 260 267 267 265 266 266 266 262 265 266 267 267 267 264 263 265 265 265 266 269 270 272 273 275 275 274 273 nan nan nan nan nan nan nan nan nan nan nan nan nan nan nan nan nan nan nan nan nan